Ottumwa, IA

11:40 PM CDT on May 26, 2018 (GMT -0500)
Ottumwa Industrial

Weather History for KOTM - August, 2013

Change the Weather History Date:

Wednesday, August 7, 2013

  Actual Average Record
Temperature  
Mean Temperature 73 °F 74 °F  
Max Temperature 84 °F 85 °F 107 °F (1934)
Min Temperature 64 °F 64 °F 49 °F (1989)
Degree Days  
Heating Degree Days 0 0  
Month to date heating degree days 0  
Since 1 June heating degree days 23  
Since 1 July heating degree days 2  
Cooling Degree Days 8 9  
Month to date cooling degree days 65  
Year to date cooling degree days 644  
Since 1 June cooling degree days 580  
Growing Degree Days 23 (Base 50)    
Moisture  
Dew Point 66 °F    
Average Humidity 81    
Maximum Humidity 100    
Minimum Humidity 54    
Precipitation  
Precipitation 0.23 in 0.15 in 1.48 in (1977)
Month to date precipitation 1.00  
Year to date precipitation 23.09  
Sea Level Pressure  
Sea Level Pressure 29.86 in    
Wind  
Wind Speed 7 mph (North)    
Max Wind Speed 17 mph    
Max Gust Speed 20 mph    
Visibility 9 miles    
Events Rain , Thunderstorm    
T = Trace of Precipitation, MM = Missing Value Source: NWS Daily Summary

Daily Weather History Graph

Daily Weather History Graph

Search for Another Location

Airport or City:

Astronomy

Aug. 07, 2013 Rise Set
Actual Time 6:11 AM CDT 8:18 PM CDT
Civil Twilight 5:41 AM CDT 8:48 PM CDT
Nautical Twilight 5:04 AM CDT 9:26 PM CDT
Astronomical Twilight 4:23 AM CDT 10:06 PM CDT
Moon 7:01 AM CDT (8/7) 8:24 PM CDT (8/7)
Length of Visible Light 15h 07m
Length of Day
14h 07m
New Moon, 1% of the Moon is Illuminated
Aug 7
New Moon
Aug 14
First Quarter
Aug 20
Full
Aug 28
Last Quarter
Sep 5
New

Hourly Weather History & Observations

Time (CDT) Temp. Heat Index Dew Point Humidity Pressure Visibility Wind Dir Wind Speed Gust Speed Precip Events Conditions
12:53 AM 69.1 °F - 66.0 °F 90% 29.81 in 10.0 mi West 5.8 mph - N/A   Mostly Cloudy
1:40 AM 69.8 °F - 66.2 °F 88% 29.84 in 10.0 mi NNW 6.9 mph - N/A Thunderstorm Clear
1:53 AM 69.1 °F - 66.9 °F 93% 29.79 in 10.0 mi SSW 4.6 mph - N/A Thunderstorm Clear
2:24 AM 69.8 °F - 66.2 °F 88% 29.81 in 10.0 mi NNW 4.6 mph - N/A Thunderstorm Scattered Clouds
2:53 AM 70.0 °F - 68.0 °F 93% 29.81 in 9.0 mi North 12.7 mph 19.6 mph 0.00 in Rain , Thunderstorm Light Thunderstorms and Rain
3:15 AM 69.8 °F - 66.2 °F 88% 29.85 in 6.0 mi North 5.8 mph - 0.04 in Rain , Thunderstorm Heavy Thunderstorms and Rain
3:23 AM 66.2 °F - 66.2 °F 100% 29.83 in 1.8 mi East 4.6 mph - 0.18 in Rain , Thunderstorm Heavy Thunderstorms and Rain
3:31 AM 68.0 °F - 66.2 °F 94% 29.82 in 3.0 mi NE 5.8 mph 16.1 mph 0.22 in Rain , Thunderstorm Light Thunderstorms and Rain
3:45 AM 68.0 °F - 66.2 °F 94% 29.83 in 10.0 mi East 8.1 mph - 0.22 in Thunderstorm Thunderstorm
3:53 AM 66.9 °F - 66.0 °F 97% 29.80 in 10.0 mi ESE 8.1 mph - 0.22 in Rain , Thunderstorm Light Rain
4:13 AM 68.0 °F - 66.2 °F 94% 29.80 in 10.0 mi East 5.8 mph - 0.01 in   Mostly Cloudy
4:53 AM 66.9 °F - 66.0 °F 97% 29.78 in 10.0 mi SE 5.8 mph - 0.01 in   Clear
5:53 AM 68.0 °F - 66.0 °F 93% 29.81 in 10.0 mi SW 3.5 mph - N/A   Clear
6:53 AM 68.0 °F - 66.9 °F 96% 29.83 in 10.0 mi WSW 3.5 mph - N/A   Scattered Clouds
7:53 AM 70.0 °F - 68.0 °F 93% 29.84 in 10.0 mi SW 3.5 mph - N/A   Clear
8:53 AM 75.0 °F - 72.0 °F 90% 29.83 in 10.0 mi WNW 4.6 mph - N/A   Clear
9:53 AM 79.0 °F - 72.0 °F 79% 29.86 in 10.0 mi WNW 6.9 mph - N/A   Partly Cloudy
10:53 AM 79.0 °F - 70.0 °F 74% 29.86 in 10.0 mi NW 11.5 mph - N/A   Clear
11:53 AM 81.0 °F 84.9 °F 71.1 °F 72% 29.86 in 10.0 mi NNW 11.5 mph - N/A   Clear
12:53 PM 82.9 °F 85.4 °F 66.9 °F 58% 29.86 in 10.0 mi NW 17.3 mph - N/A   Clear
1:53 PM 82.9 °F 85.4 °F 66.9 °F 58% 29.87 in 10.0 mi NNW 15.0 mph - N/A   Clear
2:53 PM 82.0 °F 84.1 °F 66.0 °F 58% 29.89 in 10.0 mi North 12.7 mph - N/A   Clear
3:53 PM 82.0 °F 83.4 °F 64.0 °F 54% 29.89 in 10.0 mi North 12.7 mph - N/A   Scattered Clouds
4:53 PM 81.0 °F 82.5 °F 64.0 °F 56% 29.90 in 10.0 mi North 13.8 mph - N/A   Clear
5:53 PM 80.1 °F 81.5 °F 63.0 °F 56% 29.91 in 10.0 mi North 11.5 mph - N/A   Scattered Clouds
6:53 PM 77.0 °F - 63.0 °F 62% 29.93 in 10.0 mi North 10.4 mph - N/A   Clear
7:53 PM 73.9 °F - 63.0 °F 68% 29.94 in 10.0 mi NNE 5.8 mph - N/A   Clear
8:53 PM 70.0 °F - 63.0 °F 78% 29.94 in 10.0 mi NNE 4.6 mph - N/A   Clear
9:53 PM 68.0 °F - 63.0 °F 84% 29.96 in 10.0 mi North 4.6 mph - N/A   Clear
10:53 PM 64.9 °F - 62.1 °F 90% 29.98 in 10.0 mi North 5.8 mph - N/A   Clear
11:53 PM 64.9 °F - 61.0 °F 87% 29.98 in 10.0 mi North 5.8 mph - N/A   Clear